This is the latest recevied weather packets stored in our database for station/object KC1OEK-13. If no packets are shown the sender has not sent any weather packets the latest 10 day(s).
| Time | Temp. | Humidity | Pressure | Rain* | Wind** | Luminosity | Snow |
|---|---|---|---|---|---|---|---|
| 1777648250 | 13.33° C | 47% | 1013.3 hPa | 0 mm | - | 703 W/m² | - |
| 1777647950 | 12.78° C | 47% | 1013.4 hPa | 0 mm | - | 690 W/m² | - |
| 1777647647 | 12.22° C | 50% | 1013.3 hPa | 0 mm | - | 681 W/m² | - |
| 1777647343 | 12.22° C | 53% | 1013.3 hPa | 0 mm | - | 676 W/m² | - |
| 1777647042 | 12.22° C | 49% | 1013.4 hPa | 0 mm | - | 656 W/m² | - |
| 1777646129 | 12.22° C | 51% | 1013.3 hPa | 0 mm | - | 639 W/m² | - |
| 1777645826 | 11.67° C | 53% | 1013.4 hPa | 0 mm | - | 632 W/m² | - |
| 1777645524 | 12.22° C | 51% | 1013.5 hPa | 0 mm | - | 546 W/m² | - |
| 1777645219 | 12.22° C | 52% | 1013.3 hPa | 0 mm | - | 608 W/m² | - |
| 1777644915 | 11.11° C | 56% | 1013.4 hPa | 0 mm | - | 600 W/m² | - |
| 1777644614 | 11.67° C | 54% | 1013.6 hPa | 0 mm | - | 592 W/m² | - |
| 1777644309 | 11.11° C | 55% | 1013.5 hPa | 0 mm | - | 569 W/m² | - |
| 1777642793 | 11.11° C | 58% | 1013.5 hPa | 0 mm | - | 610 W/m² | - |
| 1777642490 | 10° C | 60% | 1013.8 hPa | 0 mm | - | 607 W/m² | - |
| 1777642186 | 10° C | 61% | 1013.7 hPa | 0 mm | - | 538 W/m² | - |
| 1777641884 | 9.44° C | 63% | 1013.8 hPa | 0 mm | - | 163 W/m² | - |
| 1777641278 | 10° C | 65% | 1013.6 hPa | 0 mm | - | 185 W/m² | - |
| 1777640975 | 9.44° C | 67% | 1013.6 hPa | 0 mm | - | 140 W/m² | - |
| 1777640672 | 9.44° C | 67% | 1013.6 hPa | 0 mm | - | 167 W/m² | - |
| 1777638852 | 8.89° C | 72% | 1013.7 hPa | 0 mm | - | 326 W/m² | - |
| 1777638548 | 8.89° C | 71% | 1013.7 hPa | 0 mm | - | 315 W/m² | - |
| 1777638244 | 8.33° C | 71% | 1013.6 hPa | 0 mm | - | 294 W/m² | - |
| 1777637940 | 8.33° C | 72% | 1013.8 hPa | 0 mm | - | 277 W/m² | - |
| 1777637636 | 7.78° C | 74% | 1013.6 hPa | 0 mm | - | 267 W/m² | - |
| 1777637334 | 7.78° C | 75% | 1013.8 hPa | 0 mm | - | 74 W/m² | - |
* Rain latest hour (hover to see other rain measurements)
** Current wind speed in m/s (hover to see current wind gust speed)